Theta_e
320 320 321 320 320 320 321 320 319 319 318 317 316 316 316 316 315 306 299 304 309 320 312 305 305 303 302 301 303 308 302 301 305 307 309 312 313 318 314 316 312 313 316 309 305
320 319 318 318 318 319 319 320 319 319 319 319 317 315 315 315 307 299 308 309 313 320 303 299 298 299 297 297 300 300 296 298 306 310 310 314 313 315 310 310 309 311 312 304 306
316 316 316 315 316 316 317 317 318 318 319 319 318 315 314 312 295 294 308 312 319 314 301 302 301 299 295 296 297 298 295 300 302 307 310 310 309 311 308 309 312 313 315 308 305
313 313 313 313 313 314 314 315 316 317 317 318 317 314 312 304 288 297 316 319 317 307 303 301 298 295 294 293 296 292 297 298 301 304 304 303 307 304 306 310 316 314 314 311 305
309 309 309 310 310 311 312 313 314 315 316 317 316 312 304 292 292 304 315 315 311 303 298 298 296 295 292 293 295 292 294 296 299 300 301 301 300 302 303 306 308 307 306 307 307
306 306 306 307 307 308 309 310 311 313 315 315 313 311 296 288 296 304 300 305 303 300 297 298 296 298 295 295 295 297 297 296 298 298 299 296 297 300 301 304 304 305 305 305 306
305 305 306 306 306 307 307 308 309 311 314 313 313 307 293 294 297 299 298 298 300 300 296 299 300 298 298 294 298 296 292 296 297 298 297 297 294 295 300 302 303 304 305 305 305
304 304 304 305 305 306 307 309 310 311 313 310 312 304 291 295 297 295 297 296 297 299 297 298 300 297 295 298 295 292 291 289 295 296 297 297 293 302 303 302 301 303 304 304 305
304 304 304 304 305 306 306 307 312 311 308 311 305 296 290 299 292 295 296 293 295 295 296 296 297 295 294 291 289 291 285 287 290 295 292 294 294 299 297 298 299 300 301 301 302
302 302 302 303 303 305 305 308 309 305 307 306 294 290 293 291 292 293 294 295 293 293 292 292 293 290 290 289 282 285 286 287 287 292 290 291 290 296 298 296 297 299 300 301 301
301 301 301 302 301 304 301 304 297 298 295 293 294 291 291 292 294 292 294 293 292 290 286 289 286 283 287 289 290 289 287 286 290 290 289 290 291 293 296 296 295 296 297 298 299
300 300 299 300 301 299 301 293 289 291 284 293 293 295 299 303 295 291 295 290 288 285 287 284 282 289 289 289 288 288 285 285 289 289 287 288 288 291 293 293 294 294 295 297 298
299 299 299 299 300 295 294 292 296 292 285 290 294 294 297 300 294 297 291 290 289 285 284 286 290 288 286 285 284 285 284 285 285 287 288 286 285 289 293 294 294 295 296 296 297
300 299 299 298 291 292 290 295 296 294 282 285 289 292 290 296 292 300 293 293 286 286 285 284 291 285 283 283 285 281 287 286 285 283 280 284 280 287 291 290 290 292 294 294 296
300 299 298 297 291 289 291 295 295 294 270 286 288 292 289 288 286 286 292 290 288 283 285 284 282 282 284 284 286 284 286 285 285 283 282 282 279 286 288 287 290 293 295 296 297
299 298 296 293 293 293 295 294 293 280 270 281 285 281 281 287 286 287 287 289 288 285 283 285 284 284 285 282 286 284 283 282 282 281 276 282 280 284 289 290 291 293 294 295 296
297 297 293 294 288 295 294 290 278 272 281 274 275 278 279 281 283 283 282 282 282 278 280 283 281 283 284 281 283 284 282 277 275 275 276 283 280 284 290 291 291 293 294 294 296
297 295 292 293 295 295 291 281 268 272 272 277 277 278 277 280 280 281 281 280 283 281 280 279 278 281 284 284 281 280 282 279 275 276 279 278 277 284 290 292 292 291 292 294 295
296 290 290 293 293 294 284 271 270 271 275 274 276 273 274 276 277 279 280 280 282 283 278 279 278 282 281 284 286 280 278 284 280 274 277 281 282 286 290 291 291 291 292 293 292
289 287 286 291 293 289 279 271 272 276 276 276 270 274 270 272 272 274 275 281 276 281 282 280 277 279 280 282 283 282 285 277 279 275 274 279 281 284 288 289 287 287 287 288 289
288 282 287 291 290 283 271 271 274 278 278 274 273 272 272 271 273 272 275 279 277 277 280 282 279 278 279 279 280 279 279 280 281 280 277 276 282 285 285 286 285 285 286 287 288
284 276 288 290 277 271 273 273 278 276 278 277 277 275 273 273 271 272 271 274 279 278 274 280 278 276 279 280 280 283 281 282 278 276 277 278 281 286 285 285 286 286 286 287 287
279 279 288 286 271 272 274 274 275 274 275 275 274 275 275 273 269 273 273 278 278 277 275 277 276 273 276 278 278 277 280 281 283 280 280 276 280 285 285 285 285 285 285 285 285
280 273 279 279 278 274 272 272 272 277 276 277 275 276 274 272 274 270 272 276 278 277 281 279 273 272 269 273 278 275 277 280 280 278 279 279 283 282 283 284 284 283 284 284 283
280 275 276 272 273 274 272 273 271 271 276 277 273 273 272 268 269 269 273 274 276 278 276 276 269 272 273 274 276 279 276 278 278 280 278 281 282 285 284 282 281 282 283 282 281
278 276 278 275 273 273 272 271 271 272 273 272 272 273 273 270 271 268 272 273 271 275 273 276 269 271 271 274 277 274 278 281 279 279 280 283 284 283 281 281 280 279 280 279 279
284 284 279 275 274 271 271 272 272 274 275 276 275 273 272 274 276 277 278 277 275 273 272 272 271 270 267 273 273 271 276 278 282 282 282 277 283 285 280 278 278 278 278 277 277
Wind_Speed
17 17 19 19 19 18 18 17 17 16 15 14 14 13 13 13 13 6 12 8 8 10 6 6 4 4 2 5 4 3 10 15 26 26 23 3 11 17 4 13 6 10 10 2 4
21 20 20 21 21 20 19 18 18 18 15 14 13 12 12 13 9 12 10 7 9 14 9 10 8 8 6 4 6 12 13 22 21 20 22 18 15 17 10 14 14 13 11 5 10
22 22 22 21 21 22 21 20 19 19 18 18 14 10 9 8 7 6 2 9 11 11 2 4 4 5 7 6 9 7 17 21 21 20 18 19 15 12 16 23 19 21 18 13 14
23 23 23 23 23 23 23 23 22 21 20 19 14 7 5 3 10 2 6 11 9 6 7 8 7 7 7 11 12 13 15 23 18 15 11 18 14 13 20 25 21 14 17 11 17
22 22 23 23 24 24 25 25 23 22 21 18 9 2 2 4 13 7 8 8 8 6 10 10 11 9 10 6 10 14 18 14 17 19 17 12 16 19 15 21 18 16 10 16 16
22 22 22 23 24 25 26 26 25 23 22 16 3 4 3 9 3 9 9 8 8 10 8 10 6 9 7 7 11 4 13 18 14 18 14 13 20 11 11 27 22 22 24 22 22
23 24 25 26 27 28 29 28 27 23 21 11 7 5 5 16 2 7 8 5 5 7 7 10 8 8 3 8 6 7 13 17 16 17 12 5 20 23 26 25 23 22 22 20 22
24 24 25 27 28 30 31 28 25 22 11 5 8 4 10 2 4 5 8 4 5 6 3 1 7 8 6 5 4 6 5 9 3 8 6 11 28 13 17 18 21 23 20 19 21
25 26 28 29 31 30 32 29 22 9 5 10 7 4 9 6 5 9 9 5 6 4 3 1 5 7 5 11 12 9 16 19 14 10 5 17 20 9 4 9 16 16 15 14 16
25 25 27 29 31 28 34 25 4 3 5 4 1 4 7 6 4 4 4 9 4 9 5 6 7 10 11 12 18 17 17 15 15 5 8 15 27 20 16 13 15 16 18 19 19
25 27 28 29 31 26 20 5 6 2 4 9 4 8 2 3 5 8 6 9 6 6 12 9 11 21 22 26 28 16 15 22 13 3 6 19 28 23 21 23 22 22 23 24 24
26 27 29 29 27 21 12 8 6 6 17 18 26 29 28 13 13 9 12 14 13 18 11 6 24 23 21 22 24 25 24 27 17 10 6 20 35 24 21 27 24 24 24 26 26
27 28 29 29 19 13 6 9 3 8 8 16 15 15 10 20 23 21 23 9 16 18 25 23 25 15 19 17 21 25 28 25 23 8 15 14 33 21 20 28 25 23 24 25 25
27 28 30 25 4 14 5 17 12 6 7 12 3 6 4 4 10 13 26 17 13 25 18 19 28 15 16 22 23 24 19 21 19 9 12 3 21 19 18 15 13 15 19 22 21
28 29 26 17 8 7 12 16 16 3 6 6 6 6 7 6 9 3 3 11 27 12 11 17 9 18 22 25 20 13 7 15 16 17 11 16 10 11 4 5 13 19 19 16 13
29 29 18 8 4 8 16 16 3 4 12 10 9 22 29 13 6 6 4 5 6 10 12 21 3 7 6 2 21 15 8 7 4 5 9 17 14 37 15 11 10 7 6 2 1
30 27 8 3 8 15 11 5 1 6 17 15 18 29 24 25 14 4 5 12 8 9 18 15 20 6 4 7 4 12 11 6 7 7 13 3 14 28 8 11 11 8 5 5 5
32 16 5 2 9 11 6 2 1 13 8 24 20 23 14 20 16 22 6 9 18 8 6 10 10 21 17 21 11 18 16 8 13 11 14 6 15 11 6 12 11 7 9 11 7
24 6 3 5 12 7 4 8 9 16 16 22 24 15 16 20 7 13 12 11 7 15 11 5 9 2 2 6 15 9 16 18 6 2 4 9 12 11 14 14 7 7 4 4 7
7 4 4 10 9 3 6 7 7 12 18 13 11 7 12 17 17 16 13 16 18 20 21 13 16 2 3 3 6 10 6 8 7 9 12 13 17 13 7 5 5 9 10 11 12
4 4 5 12 2 4 7 5 7 18 15 10 13 9 17 14 16 13 7 18 21 22 24 11 9 3 1 11 15 10 10 6 3 6 6 7 6 7 4 7 9 11 12 12 13
3 3 6 8 7 1 7 7 12 10 15 8 9 12 12 17 12 7 14 9 14 18 17 11 9 12 19 1 3 10 14 18 7 8 6 6 4 6 10 10 11 11 11 13 14
3 3 3 3 7 7 7 6 4 10 14 7 8 13 18 13 9 14 18 16 14 16 12 15 7 6 7 2 1 6 14 9 18 4 15 10 9 4 7 9 9 11 10 11 13
2 4 4 4 2 5 9 6 9 11 12 8 11 12 14 13 14 12 24 13 21 22 13 11 7 11 11 17 14 6 8 18 17 11 14 14 19 9 9 7 7 10 10 11 13
4 2 1 6 6 9 4 5 13 12 5 8 10 10 15 10 19 17 18 23 21 13 11 9 11 14 19 22 21 20 10 8 16 22 14 19 17 10 8 8 7 7 9 11 14
2 3 2 6 3 4 4 6 12 13 9 17 17 18 19 14 17 22 19 15 15 21 12 8 12 16 19 20 14 18 16 17 13 19 22 22 23 12 10 9 8 9 10 12 13
1 1 2 6 4 4 5 9 20 21 13 17 18 20 20 22 17 16 17 20 19 19 22 8 9 11 16 19 19 11 3 10 9 12 16 20 18 3 7 10 10 9 11 12 12
Wind_Direction
20 19 16 13 2 355 349 347 345 341 335 330 322 317 313 313 309 260 243 245 190 170 166 144 144 139 194 225 231 227 238 237 246 250 249 253 240 239 274 253 212 196 245 69 116
25 21 14 7 358 353 349 346 340 337 329 323 315 311 312 319 292 254 237 224 205 161 183 191 185 157 182 222 215 217 230 237 243 257 263 263 252 251 240 225 235 230 217 165 161
20 13 6 359 355 350 345 342 337 336 328 322 307 304 314 316 275 246 193 183 166 167 190 204 156 176 205 195 196 224 243 243 254 258 268 263 240 242 241 252 244 246 244 201 188
16 8 1 356 349 347 341 336 334 331 326 321 303 294 313 270 276 146 160 154 162 168 163 160 174 188 229 208 206 241 246 256 261 263 248 246 252 240 240 253 257 267 263 217 208
11 3 356 348 344 339 334 329 326 322 323 321 300 271 244 219 250 157 143 153 150 170 202 191 189 206 223 223 228 235 254 261 259 264 255 258 243 248 245 255 259 258 237 233 223
7 3 354 348 344 336 330 322 317 314 318 314 242 167 216 248 96 165 146 148 174 183 197 205 227 231 276 238 225 319 257 264 270 263 253 245 252 244 230 247 256 254 245 239 233
3 358 353 347 341 334 324 315 309 307 307 291 208 178 218 249 111 158 166 185 187 196 190 212 230 218 231 254 254 276 281 272 248 247 243 220 263 241 241 249 255 253 248 246 236
358 354 349 344 339 331 322 312 304 300 284 212 181 193 249 135 156 172 180 172 174 195 223 185 211 248 239 302 255 256 240 268 206 227 227 194 256 267 247 246 243 251 255 254 246
359 353 348 344 340 334 330 315 308 287 180 153 153 219 254 131 200 198 180 184 157 156 197 160 179 223 193 229 258 224 259 240 273 199 161 209 268 248 206 224 245 252 251 247 249
358 356 351 346 340 336 330 318 292 124 103 148 115 252 215 222 166 153 160 158 161 143 143 191 208 223 217 207 231 236 243 248 251 184 226 241 256 260 255 250 250 260 260 255 250
0 355 350 346 340 345 339 339 358 199 340 252 277 267 282 123 153 179 167 155 136 189 194 194 214 218 213 219 238 264 264 263 269 253 250 254 265 262 268 267 259 255 256 257 253
0 357 353 347 344 359 6 66 63 305 296 266 261 262 255 263 266 204 160 178 184 209 175 173 232 227 229 228 236 241 254 259 264 252 260 277 275 273 261 261 252 250 250 250 253
356 355 350 344 342 356 20 54 347 340 262 278 230 251 253 206 234 238 179 197 216 219 200 213 237 207 202 212 223 235 239 250 253 278 254 283 279 275 249 240 254 249 247 250 248
355 353 350 346 3 342 7 351 330 315 282 276 250 346 5 211 243 229 196 193 203 228 205 235 249 195 194 223 207 239 231 242 248 241 259 244 284 279 277 239 233 243 238 239 245
352 354 359 14 330 351 308 318 318 240 287 8 35 312 336 276 338 44 254 215 229 197 178 221 199 199 216 222 186 237 172 211 225 233 277 223 259 268 99 253 257 247 244 252 250
350 353 359 356 352 325 314 312 273 211 244 341 38 349 340 304 293 328 207 269 309 233 240 251 64 222 226 82 188 134 115 100 129 198 239 233 217 279 265 279 263 285 251 191 113
344 351 11 359 345 322 321 314 211 225 356 4 331 328 317 303 285 239 204 215 215 194 229 234 226 192 178 131 154 193 162 186 208 202 242 174 201 258 321 289 261 272 246 286 295
340 355 348 24 336 334 327 335 261 11 11 328 331 324 319 21 339 343 288 244 230 267 308 223 230 197 183 217 180 197 190 205 226 216 240 165 226 246 256 267 294 299 279 283 296
335 353 3 346 338 326 334 45 14 341 331 332 333 354 338 331 336 333 315 276 322 224 237 251 247 199 207 210 188 171 213 236 286 43 272 214 251 266 248 264 316 357 9 36 48
327 349 319 338 336 5 45 42 330 332 328 334 332 302 329 357 355 343 309 46 355 352 338 284 280 151 139 186 238 217 160 182 217 222 227 245 260 256 235 214 54 50 49 52 47
343 1 336 338 336 27 41 332 309 321 336 322 317 313 326 342 329 325 278 321 13 341 326 285 243 257 178 211 196 177 201 221 262 232 237 255 235 5 39 85 83 66 59 55 52
4 14 357 337 36 20 359 332 310 312 338 324 300 329 335 323 321 315 321 304 351 335 323 359 296 261 234 110 301 261 232 203 207 195 236 310 268 58 86 83 86 76 63 53 51
23 302 347 333 28 12 325 312 286 308 330 319 307 323 317 311 320 311 326 329 330 336 338 1 317 296 223 188 45 229 228 252 245 350 222 218 242 122 116 93 74 72 57 54 45
24 357 325 32 52 349 343 309 329 321 302 308 300 318 334 314 321 315 305 316 324 314 307 339 295 323 311 323 330 269 224 214 213 230 222 221 235 172 171 129 82 69 56 48 43
20 27 336 318 327 319 314 283 306 323 296 309 307 318 325 304 313 307 309 316 317 299 325 326 297 306 301 296 297 280 259 251 229 225 221 231 243 203 150 115 73 56 61 54 47
21 345 230 287 264 291 332 290 296 312 320 301 297 293 305 291 281 292 302 310 300 307 310 299 288 300 288 307 313 314 297 238 235 251 259 249 245 79 108 110 75 55 52 48 43
8 280 250 284 301 282 292 300 301 309 294 301 296 292 282 297 306 296 289 284 273 278 291 285 283 296 284 297 312 283 344 326 258 227 251 247 258 194 108 69 51 51 58 53 36